Погода в Беш-Озёке

Россия / Республика Алтай     51°07′11″N   85°14′50″E
темп.,
°C
ветер,
м/с
пор.,
м/с
влажн.,
%
обл.,
%
осадки,
мм/ч
давл.,
гПа
погр.,
м
9 мая, вс
вс901:00+4св11730 0.0 102110
04:00+3вюв11779 0.0 102110
07:00+4юв1173100 0.0 102120
10:00+10ю114693 0.0 1017494
13:00+15зсз222787 0.0 10141263
16:00+16зсз3422100 0.0 10132252
19:00+14с453597 0.0 1012826
22:00+8с116089 0.0 101412
10 мая, пн
пн1001:00+5св117315 0.0 101412
04:00+4св1190100 0.0 101410
07:00+5всв1187100 0.0 101552
10:00+9св1164100 0.0 1012492
13:00+14зсз124359 0.0 10101280
16:00+15ссз333976 0.0 10081441
19:00+11ссв455658 0.2 1009588
22:00+6ссв1166100 0.0 101020
11 мая, вт
вт1101:00+6юв118895 0.2 100824
04:00+5ююв2293100 0.0 100816
07:00+7ю128797 0.4 1008132
10:00+11юз336345 0.6 10071064
13:00+11сз236184 2.9 10071062
16:00+8ссз3475100 2.3 1009864
19:00+4ссз3594100 4.5 1014565
22:00+4сз1282100 0.2 1015227
12 мая, ср
ср1201:00+3зсз1183100 0.3 101531
04:00+3сз1183100 0.1 101535
07:00+3ссз128099 0.2 1015188
10:00+6с3465100 0.6 10141028
13:00+6св3568100 1.9 10141062
16:00+6с466589 1.2 10141370
19:00+5ссз357181 1.4 1016964
22:00+2ссз2499100 2.5 1019311
13 мая, чт
чт1301:00+3сз2395100 2.9 1019347
04:00+2сз239298 0.1 1020277
07:00+3с238757 0.1 1021366
10:00+6ссв236385 0.1 10191299
13:00+9с334892 0.3 10181815
16:00+10ссв424693 0.1 10171924
19:00+9ссв22475 0.1 10171419
22:00+4всв11675 0.0 102010